K5HAS Weather Reports


Display with metric or nautical units.
time (UTC)temp
F
wind
direction
speed
MPH
gust
MPH
rain 1hr
in
rain 24hr
in
rain mn
in
humidity
%
barometer
mb
20260506211409 85 154 8.0 13.0 0.00 0.00 0.00 84 1006.5
20260506210916 85 90 9.0 14.0 0.00 0.00 0.00 84 1006.5
20260506210145 85 142 8.0 14.0 0.00 0.00 0.00 84 1006.5
20260506205645 85 90 5.0 13.0 0.00 0.00 0.00 84 1006.6
20260506205143 85 176 3.0 8.0 0.00 0.00 0.00 84 1006.6
20260506204916 85 213 3.0 5.0 0.00 0.00 0.00 84 1006.6
20260506204147 85 234 3.0 5.0 0.00 0.00 0.00 84 1006.6
20260506203913 86 226 3.0 5.0 0.00 0.00 0.00 85 1006.6
20260506203405 86 245 3.0 5.0 0.00 0.00 0.00 85 1006.6
20260506202643 86 247 3.0 8.0 0.00 0.00 0.00 85 1006.6
20260506202144 86 246 4.0 8.0 0.00 0.00 0.00 85 1006.6
20260506201642 86 220 5.0 9.0 0.00 0.00 0.00 85 1006.6
20260506201143 86 202 6.0 9.0 0.00 0.00 0.00 85 1006.8
20260506200642 85 207 5.0 14.0 0.00 0.00 0.00 85 1006.8
20260506200144 85 213 6.0 14.0 0.00 0.00 0.00 86 1006.8
20260506195642 85 160 7.0 14.0 0.00 0.00 0.00 86 1007.2
20260506194633 85 128 9.0 15.0 0.00 0.00 0.00 86 1007.2
20260506194124 85 199 9.0 15.0 0.00 0.00 0.00 86 1007.3
20260506193613 85 90 10.0 18.0 0.00 0.00 0.00 86 1007.3
20260506193108 85 181 11.0 18.0 0.00 0.00 0.00 87 1007.3
20260506192557 84 90 10.0 17.0 0.00 0.00 0.00 87 1007.6
20260506191542 83 90 10.0 15.0 0.00 0.00 0.00 87 1007.6
20260506191031 83 90 9.0 15.0 0.00 0.00 0.00 87 1007.7
20260506190739 83 175 10.0 16.0 0.00 0.00 0.00 87 1007.7
20260506190011 83 90 10.0 16.0 0.00 0.00 0.00 87 1007.7
20260506185502 83 163 10.0 17.0 0.00 0.00 0.00 88 1007.9
20260506185208 83 170 9.0 17.0 0.00 0.00 0.00 88 1007.9
20260506184439 82 153 9.0 16.0 0.00 0.00 0.00 88 1008.2
20260506183931 82 90 9.0 16.0 0.00 0.00 0.00 88 1008.2
20260506183423 81 121 9.0 16.0 0.00 0.00 0.00 88 1008.2
20260506182922 81 131 9.0 16.0 0.00 0.00 0.00 88 1008.3
20260506182423 81 149 8.0 13.0 0.00 0.00 0.00 88 1008.3
20260506181924 81 90 8.0 14.0 0.00 0.00 0.00 88 1008.3
20260506181423 81 90 8.0 14.0 0.00 0.00 0.00 88 1008.4
20260506180923 80 153 8.0 13.0 0.00 0.00 0.00 88 1008.4
20260506180423 80 150 8.0 13.0 0.00 0.00 0.00 88 1008.4
20260506180153 80 147 9.0 13.0 0.00 0.00 0.00 88 1008.6
20260506175424 80 153 8.0 13.0 0.00 0.00 0.00 88 1008.6
20260506174928 80 149 8.0 13.0 0.00 0.00 0.00 88 1008.6
20260506174423 80 168 8.0 13.0 0.00 0.00 0.00 88 1008.6
20260506173917 80 137 7.0 13.0 0.00 0.00 0.00 89 1008.6
20260506173412 80 132 6.0 12.0 0.00 0.00 0.00 89 1008.6
20260506172907 80 90 6.0 11.0 0.00 0.00 0.00 89 1008.5
20260506172412 80 149 6.0 11.0 0.00 0.00 0.00 89 1008.5
20260506171906 80 157 5.0 11.0 0.00 0.00 0.00 89 1008.5
20260506171412 80 90 7.0 11.0 0.00 0.00 0.00 89 1008.4
20260506170907 80 162 7.0 11.0 0.00 0.00 0.00 89 1008.4
20260506170406 80 129 9.0 0.0 0.00 0.00 0.00 89 1008.4
20260506165325 80 164 8.0 13.0 0.00 0.00 0.00 89 1008.4
20260506164825 80 145 9.0 16.0 0.00 0.00 0.00 89 1008.4
20260506163824 80 165 8.0 14.0 0.00 0.00 0.00 89 1008.4
20260506163323 79 141 8.0 14.0 0.00 0.00 0.00 89 1008.4
20260506162813 79 90 8.0 15.0 0.00 0.00 0.00 89 1008.3
20260506162307 79 156 9.0 15.0 0.00 0.00 0.00 90 1008.3
20260506161757 79 123 9.0 15.0 0.00 0.00 0.00 90 1008.3
20260506161243 79 90 7.0 14.0 0.00 0.00 0.00 90 1008.1
20260506160727 79 90 7.0 15.0 0.00 0.00 0.00 90 1008.1
20260506160219 79 121 8.0 15.0 0.00 0.00 0.00 90 1008.1
20260506155709 79 139 9.0 16.0 0.00 0.00 0.00 90 1007.8
20260506155159 79 160 9.0 16.0 0.00 0.00 0.00 90 1007.8
20260506154652 79 141 9.0 15.0 0.00 0.00 0.00 90 1007.8
20260506154142 78 121 9.0 15.0 0.00 0.00 0.00 90 1007.7
20260506153629 78 95 8.0 14.0 0.00 0.00 0.00 90 1007.7
20260506153343 78 118 7.0 11.0 0.00 0.00 0.00 90 1007.7
20260506152609 78 90 8.0 12.0 0.00 0.00 0.00 90 1007.6
20260506152055 78 90 7.0 13.0 0.00 0.00 0.00 90 1007.6
20260506151544 78 109 7.0 13.0 0.00 0.00 0.00 90 1007.6
20260506151043 78 133 6.0 12.0 0.00 0.00 0.00 90 1007.6
20260506150532 78 95 5.0 9.0 0.00 0.00 0.00 90 1007.6
20260506150023 78 147 6.0 11.0 0.00 0.00 0.00 90 1007.6
20260506145735 78 143 6.0 11.0 0.00 0.00 0.00 90 1007.4
20260506145231 77 126 3.0 10.0 0.00 0.00 0.00 90 1007.4
20260506144457 77 133 3.0 6.0 0.00 0.00 0.00 90 1007.2
20260506143950 77 150 3.0 7.0 0.00 0.00 0.00 90 1007.2
20260506143445 77 117 3.0 7.0 0.00 0.00 0.00 90 1007.2
20260506142939 77 128 5.0 8.0 0.00 0.00 0.00 90 1007.2
20260506142425 77 111 6.0 9.0 0.00 0.00 0.00 90 1007.2
20260506141914 77 116 6.0 9.0 0.00 0.00 0.00 90 1007.2
20260506141629 77 118 5.0 8.0 0.00 0.00 0.00 90 1007.2
20260506140857 77 110 6.0 8.0 0.00 0.00 0.00 90 1007.2
20260506140346 77 104 6.0 8.0 0.00 0.00 0.00 90 1007.2
20260506135840 77 111 5.0 8.0 0.00 0.00 0.00 89 1007.2
20260506135330 77 117 4.0 8.0 0.00 0.00 0.00 89 1007.2
20260506134828 77 90 5.0 8.0 0.00 0.00 0.00 89 1007.2
20260506134330 77 90 5.0 8.0 0.00 0.00 0.00 89 1007.2
20260506133825 77 95 5.0 8.0 0.00 0.00 0.00 89 1007.2
20260506133324 77 106 4.0 8.0 0.00 0.00 0.00 89 1007.2
20260506133044 77 90 4.0 7.0 0.00 0.00 0.00 89 1007.2
20260506132323 77 99 4.0 7.0 0.00 0.00 0.00 89 1007.2
20260506131825 77 85 5.0 7.0 0.00 0.00 0.00 89 1007.2
20260506131324 77 107 4.0 7.0 0.00 0.00 0.00 89 1007.2
20260506130823 76 95 3.0 6.0 0.00 0.00 0.00 89 1007.2
20260506130322 76 85 3.0 6.0 0.00 0.00 0.00 89 1007.2
20260506125806 76 95 3.0 5.0 0.00 0.00 0.00 89 1007.2
20260506125255 76 95 3.0 5.0 0.00 0.00 0.00 89 1007.2
20260506124742 76 99 3.0 5.0 0.00 0.00 0.00 89 1007.2
20260506124226 76 100 2.0 5.0 0.00 0.00 0.00 89 1007.2
20260506123714 76 125 1.0 4.0 0.00 0.00 0.00 89 1007.2
20260506123202 76 127 2.0 4.0 0.00 0.00 0.00 89 1007.2
20260506122905 76 127 3.0 4.0 0.00 0.00 0.00 89 1007.1
20260506122134 76 138 3.0 4.0 0.00 0.00 0.00 89 1007.1
20260506121624 76 103 3.0 5.0 0.00 0.00 0.00 89 1007.1
20260506121113 76 101 4.0 5.0 0.00 0.00 0.00 89 1006.8
20260506120608 76 104 4.0 7.0 0.00 0.00 0.00 89 1006.8
20260506120107 76 105 3.0 7.0 0.00 0.00 0.00 89 1006.8
20260506115607 76 85 4.0 7.0 0.00 0.00 0.00 89 1006.7
20260506115107 76 105 5.0 8.0 0.00 0.00 0.00 89 1006.7
20260506114607 76 105 5.0 8.0 0.00 0.00 0.00 89 1006.7
20260506114106 76 118 4.0 8.0 0.00 0.00 0.00 89 1006.7
20260506113607 76 131 4.0 8.0 0.00 0.00 0.00 89 1006.7
20260506113108 76 116 4.0 9.0 0.00 0.00 0.00 89 1006.7
20260506112605 76 154 5.0 9.0 0.00 0.00 0.00 89 1006.7
20260506112102 76 142 4.0 8.0 0.00 0.00 0.00 89 1006.7
20260506111602 76 118 4.0 8.0 0.00 0.00 0.00 89 1006.7
20260506111100 76 126 4.0 8.0 0.00 0.00 0.00 89 1006.6
20260506110558 76 122 5.0 8.0 0.00 0.00 0.00 89 1006.6
20260506110044 76 116 4.0 8.0 0.00 0.00 0.00 89 1006.6
20260506105541 76 110 3.0 7.0 0.00 0.00 0.00 89 1006.6
20260506105036 76 139 4.0 6.0 0.00 0.00 0.00 89 1006.6
20260506104537 76 130 4.0 7.0 0.00 0.00 0.00 89 1006.6
20260506104033 76 117 4.0 7.0 0.00 0.00 0.00 89 1006.6
20260506103537 76 130 4.0 7.0 0.00 0.00 0.00 89 1006.6
20260506103034 76 103 4.0 8.0 0.00 0.00 0.00 89 1006.6
20260506102758 76 132 4.0 8.0 0.00 0.00 0.00 89 1006.4
20260506102032 76 121 5.0 8.0 0.00 0.00 0.00 89 1006.4
20260506101032 76 117 5.0 8.0 0.00 0.00 0.00 89 1006.4
20260506100536 76 120 4.0 7.0 0.00 0.00 0.00 89 1006.4
20260506100034 76 109 4.0 7.0 0.00 0.00 0.00 89 1006.4
20260506095534 76 116 5.0 7.0 0.00 0.00 0.00 89 1006.3
20260506095245 76 122 4.0 7.0 0.00 0.00 0.00 89 1006.3
20260506094520 76 126 4.0 7.0 0.00 0.00 0.00 89 1006.3
20260506094010 76 118 4.0 7.0 0.00 0.00 0.00 89 1006.2
20260506093719 76 121 4.0 7.0 0.00 0.00 0.00 89 1006.2
20260506093223 76 130 4.0 7.0 0.00 0.00 0.00 89 1006.4
20260506092443 76 141 4.0 7.0 0.00 0.00 0.00 89 1006.4
20260506091937 76 128 4.0 9.0 0.00 0.00 0.00 89 1006.4
20260506091423 76 120 4.0 9.0 0.00 0.00 0.00 89 1006.2
20260506090919 76 122 5.0 9.0 0.00 0.00 0.00 89 1006.2
20260506085918 76 128 4.0 11.0 0.00 0.00 0.00 89 1006.3
20260506085640 76 126 3.0 10.0 0.00 0.00 0.00 89 1006.3
20260506084917 76 134 4.0 8.0 0.00 0.00 0.00 89 1006.3
20260506084417 76 134 4.0 9.0 0.00 0.00 0.00 89 1006.2
20260506083918 76 144 5.0 9.0 0.00 0.00 0.00 89 1006.2
20260506083416 76 134 5.0 9.0 0.00 0.00 0.00 89 1006.2
20260506082916 76 147 4.0 8.0 0.00 0.00 0.00 88 1006.2
20260506082641 76 135 5.0 9.0 0.00 0.00 0.00 89 1006.2
20260506081916 76 154 5.0 9.0 0.00 0.00 0.00 88 1006.2
20260506081416 76 153 5.0 9.0 0.00 0.00 0.00 88 1006.5
20260506080916 76 90 4.0 9.0 0.00 0.00 0.00 88 1006.5
20260506080416 76 141 4.0 9.0 0.00 0.00 0.00 88 1006.5
20260506073333 77 145 4.0 9.0 0.00 0.00 0.00 88 1006.8
20260506072827 77 133 4.0 9.0 0.00 0.00 0.00 88 1007.1
20260506072322 77 146 5.0 8.0 0.00 0.00 0.00 88 1007.1
20260506071822 77 156 5.0 9.0 0.00 0.00 0.00 88 1007.1
20260506071323 77 151 6.0 10.0 0.00 0.00 0.00 88 1007.2
20260506071043 77 90 6.0 10.0 0.00 0.00 0.00 88 1007.2
20260506070318 77 90 6.0 9.0 0.00 0.00 0.00 88 1007.2
20260506062306 77 157 6.0 13.0 0.00 0.00 0.00 88 1007.7
20260506061756 77 169 6.0 13.0 0.00 0.00 0.00 88 1007.7
20260506061250 77 90 7.0 12.0 0.00 0.00 0.00 88 1007.7
20260506060741 77 170 6.0 12.0 0.00 0.00 0.00 88 1007.7
20260506060231 77 164 7.0 12.0 0.00 0.00 0.00 88 1007.7
20260506051109 77 170 9.0 14.0 0.00 0.00 0.00 88 1007.2
20260506050558 77 158 9.0 14.0 0.00 0.00 0.00 88 1007.2
20260506045039 77 90 10.0 16.0 0.00 0.00 0.00 88 1007.1
20260506044529 77 90 10.0 16.0 0.00 0.00 0.00 88 1007.1
20260506044023 77 117 9.0 18.0 0.00 0.00 0.00 88 1007.0
20260506043517 77 161 9.0 18.0 0.00 0.00 0.00 88 1007.0
20260506043016 77 169 10.0 17.0 0.00 0.00 0.00 87 1007.0
20260506042518 77 158 10.0 17.0 0.00 0.00 0.00 87 1006.8
20260506042016 77 147 11.0 18.0 0.00 0.00 0.00 87 1006.8
20260506041516 77 149 12.0 18.0 0.00 0.00 0.00 87 1006.8
20260506041016 77 90 12.0 18.0 0.00 0.00 0.00 87 1006.9
20260506040516 77 90 11.0 17.0 0.00 0.00 0.00 87 1006.9
20260506040017 77 90 11.0 17.0 0.00 0.00 0.00 87 1006.9
20260506035516 77 90 11.0 20.0 0.00 0.00 0.00 87 1006.7
20260506035018 77 90 11.0 20.0 0.00 0.00 0.00 87 1006.7
20260506034517 77 90 12.0 21.0 0.00 0.00 0.00 87 1006.7
20260506034017 77 151 11.0 21.0 0.00 0.00 0.00 87 1006.7
20260506033515 77 134 11.0 17.0 0.00 0.00 0.00 87 1006.7
20260506033006 77 90 10.0 17.0 0.00 0.00 0.00 87 1006.7
20260506032503 77 148 9.0 16.0 0.00 0.00 0.00 87 1006.7
20260506031949 77 141 8.0 16.0 0.00 0.00 0.00 87 1006.7
20260506031440 77 172 9.0 16.0 0.00 0.00 0.00 87 1006.7
20260506030933 77 166 9.0 16.0 0.00 0.00 0.00 87 1006.7
20260506030429 77 161 8.0 14.0 0.00 0.00 0.00 87 1006.7
20260506025930 77 152 9.0 13.0 0.00 0.00 0.00 87 1006.5
20260506025428 77 172 8.0 15.0 0.00 0.00 0.00 87 1006.5
20260506024934 77 149 7.0 15.0 0.00 0.00 0.00 87 1006.5
20260506024426 77 157 8.0 15.0 0.00 0.00 0.00 87 1006.2
20260506024154 77 155 8.0 15.0 0.00 0.00 0.00 87 1006.2
20260506023424 77 152 9.0 13.0 0.00 0.00 0.00 86 1006.2
20260506022925 77 161 9.0 13.0 0.00 0.00 0.00 86 1006.1
20260506022422 77 90 9.0 16.0 0.00 0.00 0.00 86 1006.1
20260506021922 77 174 9.0 16.0 0.00 0.00 0.00 86 1006.1
20260506021423 77 146 9.0 14.0 0.00 0.00 0.00 86 1005.7
20260506021132 77 171 10.0 14.0 0.00 0.00 0.00 86 1005.7
20260506020355 77 134 10.0 14.0 0.00 0.00 0.00 86 1005.7
20260506015843 78 166 9.0 16.0 0.00 0.00 0.00 86 1005.7
20260506015340 78 132 9.0 16.0 0.00 0.00 0.00 86 1005.7
20260506014840 78 147 10.0 15.0 0.00 0.00 0.00 86 1005.7
20260506014340 78 159 11.0 15.0 0.00 0.00 0.00 86 1005.5
20260506013841 78 159 11.0 16.0 0.00 0.00 0.00 86 1005.5
20260506013342 78 164 10.0 16.0 0.00 0.00 0.00 86 1005.5
20260506012838 78 164 11.0 17.0 0.00 0.00 0.00 86 1005.1
20260506012339 78 177 12.0 18.0 0.00 0.00 0.00 86 1005.1
20260506012102 78 143 12.0 18.0 0.00 0.00 0.00 86 1005.1
20260506011554 78 90 12.0 18.0 0.00 0.00 0.00 85 1005.1
20260506010827 78 90 11.0 18.0 0.00 0.00 0.00 85 1005.1
20260506010325 78 174 11.0 19.0 0.00 0.00 0.00 85 1005.1
20260506010054 78 165 12.0 19.0 0.00 0.00 0.00 85 1005.0
20260506005326 78 184 11.0 19.0 0.00 0.00 0.00 85 1005.0
20260506004818 78 90 11.0 19.0 0.00 0.00 0.00 85 1005.0
20260506004318 78 166 12.0 20.0 0.00 0.00 0.00 85 1004.8
20260506004043 79 90 12.0 21.0 0.00 0.00 0.00 85 1004.8
20260506003315 79 90 11.0 21.0 0.00 0.00 0.00 85 1004.8
20260506002816 79 90 12.0 23.0 0.00 0.00 0.00 85 1004.8
20260506002320 79 157 12.0 23.0 0.00 0.00 0.00 85 1004.8
20260506001816 79 157 12.0 19.0 0.00 0.00 0.00 85 1004.8
20260506001324 79 90 11.0 18.0 0.00 0.00 0.00 85 1004.8
20260506000809 79 171 13.0 19.0 0.00 0.00 0.00 85 1004.8
20260506000258 79 90 13.0 21.0 0.00 0.00 0.00 85 1004.8
20260505235744 79 158 12.0 21.0 0.00 0.00 0.00 84 1004.6
20260505235239 79 143 12.0 23.0 0.00 0.00 0.00 84 1004.6
20260505234733 80 145 13.0 23.0 0.00 0.00 0.00 84 1004.6
20260505234229 80 161 15.0 23.0 0.00 0.00 0.00 84 1004.8
20260505233727 80 157 14.0 23.0 0.00 0.00 0.00 84 1004.8
20260505233225 80 175 12.0 22.0 0.00 0.00 0.00 84 1004.8
20260505232945 80 90 11.0 23.0 0.00 0.00 0.00 84 1004.9
20260505232227 80 155 12.0 23.0 0.00 0.00 0.00 84 1004.9
20260505231726 80 170 12.0 23.0 0.00 0.00 0.00 84 1004.9
20260505231458 80 167 13.0 23.0 0.00 0.00 0.00 84 1004.8
20260505230731 80 144 13.0 21.0 0.00 0.00 0.00 84 1004.8
20260505230225 80 90 13.0 22.0 0.00 0.00 0.00 84 1004.8
20260505225727 80 155 14.0 22.0 0.00 0.00 0.00 84 1005.1
20260505225500 80 148 15.0 22.0 0.00 0.00 0.00 83 1005.1
20260505224942 80 172 15.0 23.0 0.00 0.00 0.00 83 1005.1
20260505223717 80 90 13.0 21.0 0.00 0.00 0.00 83 1005.1
20260505223210 81 130 12.0 21.0 0.00 0.00 0.00 83 1005.1
20260505222659 81 90 12.0 20.0 0.00 0.00 0.00 83 1005.1
20260505222159 81 162 12.0 20.0 0.00 0.00 0.00 83 1005.1
20260505221658 81 152 12.0 19.0 0.00 0.00 0.00 83 1005.1
20260505221200 81 156 12.0 19.0 0.00 0.00 0.00 83 1005.3
20260505220656 81 153 12.0 19.0 0.00 0.00 0.00 83 1005.3
20260505220155 81 140 12.0 19.0 0.00 0.00 0.00 83 1005.3
20260505215655 81 130 11.0 20.0 0.00 0.00 0.00 83 1005.6
20260505215156 81 151 12.0 20.0 0.00 0.00 0.00 83 1005.6
20260505214655 81 144 12.0 19.0 0.00 0.00 0.00 83 1005.6
20260505214155 81 90 13.0 21.0 0.00 0.00 0.00 83 1005.6
20260505213928 81 183 13.0 21.0 0.00 0.00 0.00 83 1005.6
20260505213155 81 161 10.0 19.0 0.00 0.00 0.00 83 1005.6
20260505212657 82 134 10.0 18.0 0.00 0.00 0.00 83 1005.7
20260505212420 82 150 12.0 18.0 0.00 0.00 0.00 83 1005.7
20260505211700 82 155 11.0 17.0 0.00 0.00 0.00 82 1005.7